This is the latest recevied weather packets stored in our database for station/object OE-11073. If no packets are shown the sender has not sent any weather packets the latest 10 day(s).
| Time | Temp. | Humidity | Pressure | Rain* | Wind** | Luminosity | Snow |
|---|---|---|---|---|---|---|---|
| 1788361511 | 25° C | 39% | - | 0 mm | - | 459 W/m² | - |
| 1788359711 | 25° C | 39% | - | 0 mm | - | 543 W/m² | - |
| 1788359111 | 25.56° C | 44% | - | 0 mm | - | 543 W/m² | - |
| 1788358284 | 24.44° C | 44% | - | 0 mm | - | 574 W/m² | - |
| 1788357311 | 24.44° C | 51% | - | 0 mm | - | 643 W/m² | - |
| 1788356111 | 23.89° C | 46% | - | 0 mm | - | 490 W/m² | - |
| 1788355511 | 24.44° C | 49% | - | 0 mm | - | 620 W/m² | - |
| 1788354684 | 23.89° C | 48% | - | 0 mm | - | 643 W/m² | - |
| 1788354311 | 23.89° C | 47% | - | 0 mm | - | 543 W/m² | - |
| 1788352884 | 23.33° C | 50% | - | 0 mm | - | 696 W/m² | - |
| 1788352511 | 23.33° C | 50% | - | 0 mm | - | 750 W/m² | - |
| 1788351911 | 22.78° C | 50% | - | 0 mm | - | 298 W/m² | - |
| 1788351084 | 22.78° C | 50% | - | 0 mm | - | 497 W/m² | - |
| 1788350111 | 22.78° C | 49% | - | 0 mm | - | 696 W/m² | - |
| 1788348911 | 22.78° C | 50% | - | 0 mm | - | 696 W/m² | - |
| 1788348312 | 22.22° C | 50% | - | 0 mm | - | 681 W/m² | - |
| 1788347484 | 22.22° C | 52% | - | 0 mm | - | 819 W/m² | - |
| 1788347111 | 22.22° C | 57% | - | 0 mm | - | 635 W/m² | - |
| 1788346510 | 21.67° C | 53% | - | 0 mm | - | 719 W/m² | - |
| 1788345684 | 21.67° C | 56% | - | 0 mm | - | 757 W/m² | - |
| 1788345311 | 21.11° C | 58% | - | 0 mm | - | 757 W/m² | - |
| 1788344711 | 21.11° C | 62% | - | 0 mm | - | 734 W/m² | - |
| 1788343884 | 20.56° C | 60% | - | 0 mm | - | 658 W/m² | - |
| 1788343511 | 20.56° C | 60% | - | 0 mm | - | 727 W/m² | - |
| 1788342911 | 20.56° C | 59% | - | 0 mm | - | 742 W/m² | - |
* Rain latest hour (hover to see other rain measurements)
** Current wind speed in m/s (hover to see current wind gust speed)